Regional Weather Roundup
Issued by NWS Sterling, VA

Home | Current Version | Previous Version | Text Only | Print | Product List | Glossary On
Versions: 1 2 3 4 5 6 7 8 9 10 11 12 13 14 15 16 17 18 19 20 21 22 23 24 25 26 27 28 29 30 31 32 33 34 35 36 37 38 39 40 41 42 43 44 45 46 47 48 49 50
554
ASUS41 KLWX 051611
RWRLWX

REGIONAL WEATHER ROUNDUP
NATIONAL WEATHER SERVICE BALTIMORE MD/WASHINGTON DC
1200 PM EDT THU MAY 05 2016

Note: "FAIR" indicates few or no clouds below 12,000 feet
with no significant weather and/or obstructions to visibility.
 TC=TEMPERATURE CELSIUS

 * =Non NWS site. Station does not report precipitation (e.g. rain,
    snow, etc.), thunder, or fog.

DCZ001-MDZ009-015-VAZ040>042-051-053>054-051700-
WASHINGTON METRO

CITY           SKY/WX    TMP DP  RH WIND       PRES   REMARKS
WASHINGTON NAT DRIZZLE   52  49  89 NE13      29.68S FOG
DULLES         CLOUDY    53  46  77 NE12      29.68S
ANDREWS AFB    CLOUDY    50  48  93 N10       29.66F
FT BELVOIR     CLOUDY    52  50  93 VRB5      29.67S
QUANTICO       CLOUDY    54  49  83 NE12      29.68S
COLLEGE PARK*  CLOUDY    50  46  87 E5        29.68S
LEESBURG*      CLOUDY    54  52  94 NE8       29.69S FOG
MANASSAS*      CLOUDY    54  52  94 NE6       29.67F
GAITHERSBURG*  CLOUDY    52  45  76 NE5       29.72S

$$

MDZ006>007-011-014-051700-
BALTIMORE METRO

CITY           SKY/WX    TMP DP  RH WIND       PRES   REMARKS
BWI AIRPORT    CLOUDY    52  47  83 NE9       29.68S
MD SCIENCE CTR   N/A     53  46  77 MISG      29.69F
MARTIN STATE   PTSUNNY   54  50  87 NE6       29.70S FOG
ANNAPOLIS      CLOUDY    52  47  83 NE6       29.68S
FORT MEADE*    CLOUDY    50  46  87 NE3       29.70S

$$

MDZ012-015-019>023-051700-
MARYLAND EASTERN SHORE

CITY           SKY/WX    TMP DP  RH WIND       PRES   REMARKS
OCEAN CITY     CLOUDY    50  46  86 NE17G25   29.64S
SALISBURY      CLOUDY    51  47  86 NE10G22   29.64F
CAMBRIDGE*     CLOUDY    50  45  81 NE9       29.64F
EASTON*        CLOUDY   N/A N/A N/A NE9       29.70F

$$

MDZ017>025-051700-
SOUTHERN MARYLAND

CITY           SKY/WX    TMP DP  RH WIND       PRES   REMARKS
PATUXENT RIVER CLOUDY    52  46  80 NE14      29.65F
ST INIGOES     CLOUDY    53  47  79 NE12G20   29.64F
LEONARDTOWN*   CLOUDY    50  45  81 NE7       29.66F

$$

MDZ003>005-051700-
NORTH CENTRAL MARYLAND

CITY           SKY/WX    TMP DP  RH WIND       PRES   REMARKS
FREDERICK*     CLOUDY    52  50  93 NE6       29.72S
HAGERSTOWN APT CLOUDY    54  46  74 N9        29.68F
WESTMINSTER*   CLOUDY    52  43  71 NE10      29.68F

$$

MDZ501>502-051700-
WESTERN MARYLAND

CITY           SKY/WX    TMP DP  RH WIND       PRES   REMARKS
OAKLAND*       FOG       43  43 100 N7        29.68S VSB 1/4
CUMBERLAND*    CLOUDY    54  48  82 N7        29.73S

$$

VAZ025>031-051700-
SHENANDOAH VALLEY

CITY           SKY/WX    TMP DP  RH WIND       PRES   REMARKS
WINCHESTER*    CLOUDY    52  48  87 NE3       29.68F
FRONT ROYAL*   CLOUDY    50  50 100 NE3       29.67F
LURAY*         LGT RAIN  52  52 100 NE10      29.66S
NEW MARKET*    CLOUDY    50  49  95 NE8       29.66S
STAUNTON*      LGT RAIN  52  52  99 N10       29.67S
WAYNESBORO*    CLOUDY    49  47  95 NE3       29.65R

$$

WVZ021-048>050-054>055-051700-
EASTERN WEST VIRGINIA PANHANDLE

CITY           SKY/WX    TMP DP  RH WIND       PRES   REMARKS
MARTINSBURG    CLOUDY    53  47  79 N9        29.68S
PETERSBURG*    LGT RAIN  52  50  91 NW3       29.69S

$$

VAZ036>039-050-051700-
CENTRAL FOOTHILLS

CITY           SKY/WX    TMP DP  RH WIND       PRES   REMARKS
CHARLOTTESVILL RAIN      51  48  89 NE8       29.65S FOG
CULPEPER*      CLOUDY    53  51  93 N6        29.68S
ORANGE*        DRIZZLE   52  52 100 NE5       29.68S
GORDONSVILLE*  CLOUDY    52  51  97 NE8       29.65F
WARRENTON*     CLOUDY    53  47  81 N6        29.67S

$$

VAZ055>057-051700-
NORTH AND CENTRAL PIEDMONT

CITY           SKY/WX    TMP DP  RH WIND       PRES   REMARKS
FREDERICKSBRG* CLOUDY    54  54 100 N9        29.66S
STAFFORD*      CLOUDY    51  49  91 N7        29.71S FOG

$$

NCZ024-NYZ072-PAZ021-071-VAZ022-071-051700-
OTHER REGIONAL OBSERVATIONS

CITY           SKY/WX    TMP DP  RH WIND       PRES   REMARKS
NEW YORK CITY  CLOUDY    52  41  66 NE10      29.72F
PHILADELPHIA   CLOUDY    55  44  66 NE12      29.68F
PITTSBURGH     CLOUDY    57  48  72 N10       29.71S
ROANOKE        LGT RAIN  48  43  82 W13       29.67S
RICHMOND       CLOUDY    52  50  93 NE10      29.62F
RALEIGH        CLOUDY    56  50  80 N10G17    29.57S THUNDER

$$

ANZ530>537-051700-
MARINE OBSERVATIONS

STATION/POSITION TIME  TEMP    WIND        PRES
                       AIR SEA DIR/SP/G
                 (UTC) (F)     (DEG/KT/KT) (MB)
THOMAS PT LIGHT  1600   51 58   40/ 13/ 14 1006.0F
BALT KEY BRIDGE  1500   51      50/ 10/ 12 1005.1F
COVE POINT       1500   50      40/ 12/ 17 1004.9R
LEWISETTA        1500   52 61   50/  9/ 15 1003.5F
SOLOMONS ISLAND  1500   51 60   30/  9/ 12   N/A
PINEY POINT      1500           70/  8/ 10   N/A

$$





USA.gov is the U.S. government's official web portal to all federal, state and local government web resources and services.